Aérodrome :
LOGIN :

S'inscrire | Disclaimer

   EN    FR    IT 

 










Légende :    VFR   VFR Marginal   IFR   IFR Intensif   IFR Très Intensif
Visi : 
Plafond : 
>= 8 km
>= 3000ft
5 à 8 km
1000 à 3000 ft
1500m à 5 km
500 à 1000 ft
800 à 1500m
200 à 500 ft
< 800m
< 200 ft
Symboles :   Orages  Brouillard  Fortes neiges  Fortes précipitations  Vent > 20 kt
SIGMETs :   Divers  Orages  Givrage  Turbulence  Onde Orograph.  Cendres Volcan.






- Altitude de l'aérodrome : 20 ft
- Code IATA : BJA


DAAE - Soummam - Bejaia

DERNIER METAR :
  • 162300Z 26017KT 7000 RA SCT016 SCT033 BKN090 08/07 Q1011

METARs EXPIRÉS :
  • 162200Z 26014KT 7000 RA SCT016 SCT033 BKN090 08/07 Q1010

TAF TAF DAAE
Valide du 17 à 00h jusqu'au 18 à 00h UTC


162300Z 1700/1724 30018KT 7000 -RA FEW015TCU BKN020
TEMPO 1700/1712 5000 -TSRA FEW023CB
PROB40
TEMPO 1700/1706 29018G28KT 3000 TSRA SCT020CB
BECMG 1718/1720 17008KT 9000 SCT030



MET'MAP, la Météo Aéronautique d'un coup d'oeil ! - Copyright ORBIFLY Décembre 2007 - Disclaimer

ORBIFLY MET'MAP TEAM :

Programmation & Développement : Alexandra Zaïnal
Conception & Développement : Baudouin d'Aumeries
Co-Programmation & Développement : Marc-Olivier Méhu
Soutien technique & logistique : Manuel Goepfert

Contact : metmap@orbifly.com




SOURCES & CREDITS :

   NOAA